DW4547 Weather Reports


time (UTC)temp
C
wind
direction
speed
KPH
gust
KPH
rain 1hr
cm
rain 24hr
cm
rain mn
cm
humidity
%
barometer
mb
20260507200843 16 116 4.8 8.0 0.00 0.03 0.03 76 1014.1
20260507195843 16 100 4.8 8.0 0.00 0.03 0.03 77 1014.0
20260507163842 19 95 4.8 9.7 0.00 0.03 0.03 65 1012.7
20260507162842 19 154 1.6 9.7 0.00 0.03 0.03 66 1012.7
20260507161902 19 112 4.8 9.7 0.00 0.03 0.03 66 1012.6
20260507160842 20 96 4.8 8.0 0.00 0.03 0.03 65 1012.6
20260507155902 20 120 3.2 8.0 0.00 0.03 0.03 65 1012.6
20260507154842 20 107 3.2 8.0 0.00 0.03 0.03 66 1012.6
20260507153902 20 135 0.0 16.1 0.00 0.03 0.03 67 1012.5
20260507152842 19 102 3.2 16.1 0.00 0.03 0.03 67 1012.5
20260507151841 19 99 8.0 16.1 0.00 0.03 0.03 67 1012.8
20260507150842 19 111 1.6 12.9 0.00 0.03 0.03 68 1012.6
20260507145841 19 99 4.8 12.9 0.00 0.03 0.03 69 1012.5
20260507144841 20 112 1.6 9.7 0.00 0.03 0.03 70 1012.6
20260507143841 19 103 3.2 9.7 0.00 0.03 0.03 72 1012.8
20260507142841 19 118 4.8 9.7 0.00 0.03 0.03 72 1012.7
20260507141841 19 122 4.8 8.0 0.00 0.03 0.03 74 1012.8
20260507140841 19 99 4.8 16.1 0.00 0.03 0.03 75 1012.7
20260507135841 20 115 3.2 16.1 0.00 0.03 0.03 72 1012.7
20260507134841 20 86 3.2 11.3 0.00 0.03 0.03 72 1012.7
20260507133841 20 101 3.2 14.5 0.00 0.03 0.03 71 1012.8
20260507132841 20 107 4.8 9.7 0.00 0.03 0.03 72 1012.7
20260507131841 19 79 3.2 9.7 0.00 0.03 0.03 75 1012.8
20260507130841 19 91 3.2 9.7 0.00 0.03 0.03 75 1012.9
20260507094840 20 272 4.8 14.5 0.00 0.03 0.03 54 1013.4
20260507093840 20 314 1.6 11.3 0.00 0.03 0.03 58 1013.4
20260507092840 20 314 4.8 9.7 0.00 0.03 0.03 60 1013.4
20260507091840 20 283 1.6 9.7 0.00 0.03 0.03 61 1013.5
20260507090840 19 249 0.0 12.9 0.00 0.03 0.03 62 1013.5
20260507085840 20 277 9.7 12.9 0.00 0.03 0.03 66 1013.5
20260507084840 19 274 3.2 12.9 0.00 0.03 0.03 64 1013.5
20260507083840 19 326 4.8 11.3 0.00 0.03 0.03 66 1013.5
20260507082900 18 288 1.6 11.3 0.00 0.03 0.03 66 1013.5
20260507081840 18 303 3.2 11.3 0.00 0.03 0.03 66 1013.4
20260507080840 18 305 1.6 9.7 0.00 0.03 0.03 67 1013.2
20260507075840 18 316 3.2 4.8 0.00 0.03 0.03 70 1013.1
20260507074840 18 316 3.2 4.8 0.00 0.03 0.03 74 1013.1
20260507073840 17 318 1.6 8.0 0.00 0.03 0.03 75 1013.3
20260507072840 17 318 3.2 8.0 0.00 0.03 0.03 77 1013.3
20260507071840 17 319 0.0 8.0 0.00 0.03 0.03 78 1013.4
20260507070840 17 318 1.6 8.0 0.00 0.03 0.03 77 1013.3
20260507065840 17 270 8.0 8.0 0.00 0.03 0.03 78 1013.1
20260507064839 17 249 3.2 4.8 0.00 0.03 0.03 78 1013.1
20260507063839 16 270 4.8 11.3 0.00 0.03 0.03 79 1013.1
20260507062840 16 284 4.8 11.3 0.00 0.03 0.03 80 1013.0
20260507061840 16 274 9.7 11.3 0.00 0.03 0.03 82 1013.0
20260507030839 16 312 1.6 4.8 0.00 0.03 0.00 76 1012.0
20260507025839 16 298 0.0 4.8 0.00 0.03 0.00 74 1011.8
20260507024839 16 298 3.2 4.8 0.00 0.03 0.00 73 1011.7
20260507023839 16 284 0.0 11.3 0.00 0.03 0.00 73 1011.6
20260507022839 16 280 4.8 11.3 0.00 0.03 0.00 75 1011.6
20260507021839 16 17 3.2 11.3 0.00 0.03 0.00 75 1011.4
20260507020859 16 14 3.2 14.5 0.00 0.03 0.00 75 1011.6
20260507015839 16 299 0.0 14.5 0.00 0.03 0.00 74 1011.4